OBJECT S, 62393

Orbit data source: Space-Track

You're viewing an Uncataloged Satellite

Recently launched and/or uncataloged satellites may have evolving metadata. Metadata may include but not limited to: Owner, Maufacturer, Bus, Motor, and Mission.

OBJECT S, 62393 is a satellite in LEO that was launched on Sat, 21 Dec 2024 UTC via an FALCON 9 launch vehicle from the Air Force Western Test Range (AFWTR). Unknown objects in Earth's orbit typically refer to objects detected orbiting the Earth but have not yet been identified or cataloged. These objects could be anything from previously untracked satellites, spent rocket stages, debris from satellite collisions, or even natural meteoroids temporarily captured by Earth's gravity.

Loading next visibility...
Identifier
62393, 2024-247S
Orbit
LEO
Country
Flag of TBDTBD
Related business
None
Manufacturer
Unknown
Mission
Operational Commercial Communications
Bus & Motor
Unknown
Mass
Unknown
Launch date (UTC)
2024-12-21 (1 year ago)
Launch vehicle
FALCON 9
Launch site
Air Force Western Test Range (AFWTR)
Object type
Unknown
Shape & HBR
Box, 0.0 m
Radar Cross Section
0.004 m², Small (<0.1 m²)

Expand to show TLE details & history
Last TLE update: 22 hours ago

TLE from 22 hours ago
0 OBJECT S
1 62393U 24247S   26036.35246697  .00109151  00000-0  18083-2 0  9990
2 62393  44.9692 263.1888 0007069 198.3019 161.7619 15.51109298 63144
Epoch: 2026-02-05T08:27Z
TLE epoch observation values (Epoch: 2026-02-05T08:27:33.146Z)
Latitude
-0.00002°
Longitude
0.79475°
Altitude
418.041 km
Speed
7.659 km/s
True Right ascension
17h 32m 45s
True Declination
0° 00' 00"
Sunlit
Object was in daylight at epoch
Visualization orbit readout
Latitude
Unknown
Longitude
Unknown
Altitude
Unknown
Speed
Unknown
Apparent Right ascension
Unknown
Apparent Declination
Unknown
Sunlit
N/A
Visualization observer readout
Local Sidereal Time
08:19:47
Azimuth
Unknown
Elevation
Unknown
Doppler factor
Unknown
Orbital elements
Apogee altitude
419.919 km
Perigee altitude
410.315 km
Semi-major axis
6,793.254 km
Eccentricity
0.00071
Inclination
44.9692°
RAAN
263.1888°
Arg. of periapsis
198.3019°
True anomaly
161.78723°
Mean anomaly
161.7619°
Eccentric anomaly
161.77457°
Mean motion
3.87638 °/min
Orbital period
92.87 mins
BSTAR
0.0018083
Loading maneuver chart data...
Computing Atmospheric mass density...
Loading historical data...
Loading historical data...
Loading historical data...
Loading historical data...
Loading historical data...
Loading historical data...
Loading historical data...

Documentation

Showing up to 5 results
|